Tracking 29487 objects as of 10-Sep-2024
HD Live streaming from Space Station
objects crossing your sky now

STARLINK-30074

Track STARLINK-30074 now!
10-day predictions
STARLINK-30074 is classified as:


NORAD ID: 57508
Int'l Code: 2023-113P
Perigee: 564.7 km
Apogee: 567.8 km
Inclination: 43.0 °
Period: 95.8 minutes
Semi major axis: 6937 km
RCS: Unknown
Launch date: August 7, 2023
Source: United States (US)
Launch site: AIR FORCE EASTERN TEST RANGE (AFETR)
Your satellite tracking list
Your tracking list is empty




NASA's NSSDC Master Catalog

Two Line Element Set (TLE):
1 57508U 23113P   24253.98088022  .00001056  00000-0  93252-4 0  9995
2 57508  43.0049 102.3693 0002234 259.0000 101.0591 15.02537809 61361
Source of the keplerian elements: AFSPC